This is the latest recevied weather packets stored in our database for station/object K0WOI. If no packets are shown the sender has not sent any weather packets the latest 10 day(s).
| Time | Temp. | Humidity | Pressure | Rain* | Wind** | Luminosity | Snow |
|---|---|---|---|---|---|---|---|
| 1777945083 | 15° C | 41% | 1005.5 hPa | 0 mm | - | 0 W/m² | - |
| 1777944781 | 15° C | 39% | 1004.9 hPa | 0 mm | - | 0 W/m² | - |
| 1777944479 | 15.56° C | 40% | 1004.9 hPa | 0 mm | - | 0 W/m² | - |
| 1777944176 | 15.56° C | 38% | 1004.8 hPa | 0 mm | - | 0 W/m² | - |
| 1777943872 | 15.56° C | 38% | 1004.7 hPa | 0 mm | - | 0 W/m² | - |
| 1777943569 | 16.11° C | 39% | 1004.5 hPa | 0 mm | - | 0 W/m² | - |
| 1777943265 | 16.11° C | 38% | 1004.5 hPa | 0 mm | - | 1 W/m² | - |
| 1777942961 | 16.67° C | 37% | 1004.2 hPa | 0 mm | - | 3 W/m² | - |
| 1777942658 | 16.67° C | 36% | 1004.1 hPa | 0 mm | - | 4 W/m² | - |
| 1777942355 | 17.22° C | 35% | 1003.6 hPa | 0 mm | - | 7 W/m² | - |
| 1777942052 | 17.78° C | 34% | 1003.6 hPa | 0 mm | - | 10 W/m² | - |
| 1777941748 | 17.78° C | 34% | 1003.6 hPa | 0 mm | - | 12 W/m² | - |
| 1777941445 | 18.33° C | 35% | 1003.5 hPa | 0 mm | - | 16 W/m² | - |
| 1777941143 | 18.33° C | 35% | 1003.4 hPa | 0 mm | - | 19 W/m² | - |
| 1777940839 | 18.89° C | 33% | 1003.1 hPa | 0 mm | - | 18 W/m² | - |
| 1777940537 | 18.89° C | 33% | 1003 hPa | 0 mm | - | 18 W/m² | - |
| 1777940234 | 19.44° C | 33% | 1002.8 hPa | 0 mm | - | 23 W/m² | - |
| 1777939932 | 20° C | 32% | 1002.7 hPa | 0 mm | - | 26 W/m² | - |
| 1777939628 | 20° C | 31% | 1002.8 hPa | 0 mm | - | 33 W/m² | - |
| 1777939326 | 20.56° C | 30% | 1002.4 hPa | 0 mm | - | 35 W/m² | - |
| 1777939023 | 21.11° C | 30% | 1002.5 hPa | 0 mm | - | 36 W/m² | - |
| 1777938719 | 21.67° C | 30% | 1002.3 hPa | 0 mm | - | 40 W/m² | - |
| 1777938416 | 21.67° C | 31% | 1002.4 hPa | 0 mm | - | 42 W/m² | - |
| 1777938113 | 22.22° C | 29% | 1002.3 hPa | 0 mm | - | 44 W/m² | - |
| 1777937809 | 22.22° C | 30% | 1002.2 hPa | 0 mm | - | 45 W/m² | - |
* Rain latest hour (hover to see other rain measurements)
** Current wind speed in m/s (hover to see current wind gust speed)